Weather History for KOLM - August, 2013

Change the Weather History Date:

Monday, August 26, 2013

  Actual Average Record
Temperature  
Mean Temperature 67 °F 63 °F  
Max Temperature 76 °F 77 °F 95 °F (1967)
Min Temperature 58 °F 50 °F 39 °F (1981)
Degree Days  
Heating Degree Days 0 3  
Month to date heating degree days 20 54  
Since 1 June heating degree days 213 322  
Since 1 July heating degree days 77 134  
Cooling Degree Days 2 1  
Month to date cooling degree days 40 42  
Year to date cooling degree days 104 99  
Since 1 June cooling degree days 102 96  
Growing Degree Days 16 (Base 50)    
Moisture  
Dew Point 55 °F    
Average Humidity 66    
Maximum Humidity 93    
Minimum Humidity 38    
Precipitation  
Precipitation 0.06 in 0.05 in 0.92 in (1997)
Month to date precipitation 0.35 0.71  
Year to date precipitation 21.77 27.37  
Sea Level Pressure  
Sea Level Pressure 29.91 in    
Wind  
Wind Speed 5 mph (SSW)    
Max Wind Speed 23 mph    
Max Gust Speed 29 mph    
Visibility 10 miles    
Events Rain    
T = Trace of Precipitation, MM = Missing Value Source: NWS Daily Summary

Daily Weather History Graph

Daily Weather History Graph

Search for Another Location

Airport or City:

Trip Planner

Search our weather history database for the weather conditions in past years. The results will help you decide how hot, cold, wet, or windy it might be!

Date:

Astronomy

Aug. 26, 2013 Rise Set
Actual Time 6:23 AM PDT 8:01 PM PDT
Civil Twilight 5:51 AM PDT 8:33 PM PDT
Nautical Twilight 5:12 AM PDT 9:12 PM PDT
Astronomical Twilight 4:29 AM PDT 9:55 PM PDT
Moon 10:48 PM PDT (8/26) 12:57 PM PDT (8/26)
Length of Visible Light 14h 42m
Length of Day
13h 38m
Waning Gibbous, 65% of the Moon is Illuminated
Aug 26
Waning Gibbous
Aug 28
Last Quarter
Sep 5
New
Sep 12
First Quarter
Sep 19
Full

Hourly Weather History & Observations

Time (PDT) Temp. Dew Point Humidity Pressure Visibility Wind Dir Wind Speed Gust Speed Precip Events Conditions
12:54 AM 60.1 °F 55.9 °F 86% 29.90 in 10.0 mi Calm Calm - N/A   Overcast
1:54 AM 60.1 °F 55.9 °F 86% 29.90 in 10.0 mi Calm Calm - N/A   Overcast
2:54 AM 60.1 °F 55.0 °F 83% 29.91 in 10.0 mi Calm Calm - N/A   Overcast
3:33 AM 59.0 °F 55.0 °F 87% 29.91 in 10.0 mi West 3.5 mph - N/A   Overcast
3:54 AM 57.9 °F 55.0 °F 90% 29.91 in 10.0 mi Calm Calm - N/A   Overcast
4:11 AM 57.9 °F 54.0 °F 87% 29.91 in 10.0 mi Calm Calm - N/A   Overcast
4:36 AM 57.9 °F 54.0 °F 87% 29.91 in 10.0 mi Calm Calm - N/A   Overcast
4:45 AM 57.9 °F 54.0 °F 87% 29.91 in 10.0 mi Calm Calm - N/A   Overcast
4:54 AM 57.9 °F 54.0 °F 87% 29.91 in 10.0 mi Calm Calm - N/A   Overcast
5:07 AM 57.9 °F 54.0 °F 87% 29.91 in 10.0 mi Calm Calm - N/A   Overcast
5:41 AM 57.9 °F 55.0 °F 90% 29.91 in 10.0 mi Calm Calm - N/A   Overcast
5:54 AM 59.0 °F 54.0 °F 83% 29.91 in 10.0 mi Calm Calm - N/A   Overcast
6:54 AM 59.0 °F 55.0 °F 87% 29.91 in 10.0 mi Calm Calm - N/A   Overcast
7:12 AM 59.0 °F 55.0 °F 87% 29.91 in 10.0 mi Calm Calm - N/A   Overcast
7:30 AM 60.1 °F 54.0 °F 80% 29.91 in 10.0 mi Calm Calm - N/A   Overcast
7:54 AM 60.1 °F 54.0 °F 80% 29.91 in 10.0 mi Calm Calm - N/A   Overcast
8:54 AM 62.1 °F 55.0 °F 78% 29.91 in 10.0 mi Calm Calm - N/A   Overcast
9:15 AM 62.1 °F 55.9 °F 80% 29.91 in 10.0 mi Calm Calm - N/A   Overcast
9:54 AM 64.9 °F 57.0 °F 75% 29.90 in 10.0 mi SSW 5.8 mph - N/A   Mostly Cloudy
10:54 AM 70.0 °F 55.0 °F 59% 29.89 in 10.0 mi SSW 8.1 mph 25.3 mph N/A   Mostly Cloudy
11:54 AM 72.0 °F 52.0 °F 49% 29.88 in 10.0 mi SSW 12.7 mph - N/A   Mostly Cloudy
12:54 PM 73.0 °F 51.1 °F 46% 29.88 in 10.0 mi South 16.1 mph - N/A   Mostly Cloudy
1:54 PM 75.9 °F 48.0 °F 37% 29.88 in 10.0 mi South 19.6 mph 25.3 mph N/A   Mostly Cloudy
2:54 PM 72.0 °F 48.9 °F 44% 29.89 in 10.0 mi WSW 9.2 mph 21.9 mph N/A   Mostly Cloudy
3:54 PM 66.0 °F 55.9 °F 70% 29.91 in 10.0 mi WSW 4.6 mph - 0.01 in Rain Light Rain
4:54 PM 64.0 °F 59.0 °F 84% 29.91 in 6.0 mi WSW 3.5 mph - 0.03 in Rain Light Rain
5:54 PM 63.0 °F 59.0 °F 87% 29.93 in 7.0 mi West 6.9 mph - 0.02 in Rain Light Rain
6:54 PM 63.0 °F 59.0 °F 87% 29.93 in 10.0 mi Calm Calm - 0.00 in   Overcast
7:54 PM 62.1 °F 59.0 °F 90% 29.94 in 10.0 mi SE 4.6 mph - N/A   Overcast
8:54 PM 62.1 °F 60.1 °F 93% 29.95 in 10.0 mi South 3.5 mph - N/A   Overcast
9:54 PM 62.1 °F 59.0 °F 90% 29.96 in 10.0 mi South 4.6 mph - N/A   Overcast
10:54 PM 61.0 °F 57.9 °F 90% 29.96 in 10.0 mi SSW 4.6 mph - N/A   Overcast
11:54 PM 61.0 °F 57.9 °F 90% 29.96 in 10.0 mi SW 6.9 mph - N/A   Overcast